Angleton, TX

9:24 AM CDT on March 29, 2017 (GMT -0500)
Brazoria County

Weather History for KLBX - June, 2014

Change the Weather History Date:

Monday, June 9, 2014

  Actual Average Record
Temperature  
Mean Temperature 82 °F -  
Max Temperature 88 °F 86 °F 93 °F (2006)
Min Temperature 77 °F 71 °F 68 °F (2006)
Cooling Degree Days 17    
Growing Degree Days 32 (Base 50)    
Moisture  
Dew Point 74 °F    
Average Humidity 79    
Maximum Humidity 90    
Minimum Humidity 61    
Precipitation  
Precipitation 0.01 in - - ()
Sea Level Pressure  
Sea Level Pressure 29.84 in    
Wind  
Wind Speed 11 mph (South)    
Max Wind Speed 23 mph    
Max Gust Speed 30 mph    
Visibility 10 miles    
Events Rain    
Averages and records for this station are not official NWS values.
T = Trace of Precipitation, MM = Missing Value Source: NWS Daily Summary

Daily Weather History Graph

Daily Weather History Graph

Search for Another Location

Airport or City:

Trip Planner

Search our weather history database for the weather conditions in past years. The results will help you decide how hot, cold, wet, or windy it might be!

Date:

Astronomy

Jun. 09, 2014 Rise Set
Actual Time 6:22 AM CDT 8:20 PM CDT
Civil Twilight 5:55 AM CDT 8:47 PM CDT
Nautical Twilight 5:22 AM CDT 9:19 PM CDT
Astronomical Twilight 4:47 AM CDT 9:54 PM CDT
Moon 4:56 PM CDT (6/9) 3:33 AM CDT (6/9)
Length of Visible Light 14h 51m
Length of Day
13h 57m
Waxing Gibbous, 85% of the Moon is Illuminated
Jun 9
Waxing Gibbous
Jun 12
Full
Jun 19
Last Quarter
Jun 27
New
Jul 5
First Quarter

Hourly Weather History & Observations

Time (CDT) Temp. Heat Index Dew Point Humidity Pressure Visibility Wind Dir Wind Speed Gust Speed Precip Events Conditions
12:27 AM 79.0 °F - 73.9 °F 84% 29.89 in 9.0 mi South 6.9 mph - N/A   Mostly Cloudy
12:36 AM 78.1 °F - 73.9 °F 87% 29.89 in 10.0 mi South 6.9 mph - N/A   Scattered Clouds
12:53 AM 78.1 °F - 73.9 °F 87% 29.89 in 10.0 mi South 6.9 mph - N/A   Partly Cloudy
1:53 AM 78.1 °F - 73.9 °F 87% 29.88 in 10.0 mi South 6.9 mph - N/A   Partly Cloudy
2:53 AM 77.0 °F - 73.9 °F 90% 29.86 in 10.0 mi South 8.1 mph - N/A   Clear
3:53 AM 78.1 °F - 75.0 °F 90% 29.84 in 9.0 mi South 8.1 mph - N/A   Partly Cloudy
4:20 AM 79.0 °F - 75.0 °F 88% 29.82 in 10.0 mi South 10.4 mph - N/A   Mostly Cloudy
4:32 AM 79.0 °F - 75.0 °F 88% 29.82 in 10.0 mi South 10.4 mph - N/A   Scattered Clouds
4:53 AM 79.0 °F - 75.0 °F 88% 29.83 in 10.0 mi South 11.5 mph - N/A   Partly Cloudy
5:53 AM 79.0 °F - 73.9 °F 84% 29.83 in 10.0 mi South 11.5 mph - N/A   Partly Cloudy
6:53 AM 79.0 °F - 73.9 °F 84% 29.83 in 10.0 mi South 10.4 mph - N/A   Partly Cloudy
7:53 AM 80.1 °F 85.1 °F 75.0 °F 85% 29.84 in 10.0 mi South 11.5 mph - N/A   Clear
8:40 AM 84.0 °F 91.2 °F 73.9 °F 72% 29.85 in 10.0 mi South 19.6 mph 27.6 mph N/A   Mostly Cloudy
8:53 AM 82.9 °F 88.8 °F 73.0 °F 72% 29.85 in 10.0 mi South 20.7 mph 29.9 mph N/A   Mostly Cloudy
10:21 AM 82.0 °F 88.6 °F 75.0 °F 79% 29.86 in 10.0 mi South 15.0 mph - 0.00 in   Mostly Cloudy
10:35 AM 84.9 °F 92.1 °F 73.9 °F 69% 29.86 in 10.0 mi South 18.4 mph - 0.00 in   Scattered Clouds
10:53 AM 86.0 °F 93.8 °F 73.9 °F 67% 29.86 in 10.0 mi South 18.4 mph - 0.00 in   Scattered Clouds
11:53 AM 86.0 °F 93.0 °F 73.0 °F 65% 29.86 in 10.0 mi South 19.6 mph - N/A   Mostly Cloudy
12:08 PM 86.0 °F 93.0 °F 73.0 °F 65% 29.86 in 10.0 mi South 23.0 mph 29.9 mph N/A   Mostly Cloudy
12:53 PM 87.1 °F 93.6 °F 72.0 °F 61% 29.84 in 10.0 mi South 20.7 mph 29.9 mph N/A   Scattered Clouds
1:38 PM 87.1 °F 94.5 °F 73.0 °F 63% 29.84 in 10.0 mi South 19.6 mph 26.5 mph N/A   Mostly Cloudy
3:53 PM 82.9 °F 88.8 °F 73.0 °F 72% 29.85 in 10.0 mi South 17.3 mph - N/A   Partly Cloudy
4:53 PM 80.1 °F 84.5 °F 73.9 °F 81% 29.81 in 10.0 mi SSW 8.1 mph - 0.00 in Rain Light Rain
5:40 PM 82.9 °F 89.4 °F 73.9 °F 74% 29.79 in 10.0 mi SSW 4.6 mph - 0.00 in   Mostly Cloudy
6:01 PM 81.0 °F 86.2 °F 73.9 °F 79% 29.79 in 9.0 mi SSW 10.4 mph 17.3 mph 0.01 in Rain Light Rain
6:10 PM 82.0 °F 87.9 °F 73.9 °F 76% 29.79 in 10.0 mi SSW 8.1 mph - 0.01 in   Overcast
6:53 PM 82.9 °F 89.4 °F 73.9 °F 74% 29.80 in 8.0 mi South 12.7 mph - 0.01 in   Scattered Clouds
7:08 PM 82.9 °F 89.4 °F 73.9 °F 74% 29.81 in 10.0 mi South 11.5 mph - N/A   Mostly Cloudy
7:31 PM 82.0 °F 87.9 °F 73.9 °F 76% 29.81 in 10.0 mi South 13.8 mph - N/A   Scattered Clouds
7:53 PM 81.0 °F 86.7 °F 75.0 °F 82% 29.81 in 10.0 mi South 10.4 mph - N/A   Mostly Cloudy
8:53 PM 79.0 °F - 75.0 °F 88% 29.81 in 10.0 mi South 9.2 mph - N/A   Mostly Cloudy
9:53 PM 79.0 °F - 75.0 °F 88% 29.82 in 10.0 mi South 9.2 mph - N/A   Partly Cloudy
10:53 PM 79.0 °F - 75.0 °F 88% 29.82 in 10.0 mi South 11.5 mph - N/A   Clear
11:53 PM 79.0 °F - 75.0 °F 88% 29.83 in 10.0 mi South 10.4 mph - N/A   Clear